Location: Katowice
(50.2611°N, 19.0242°E)
Time: 17:13:03
(UTC+02:00)

A-11 Canister half - Pass Details

Date: 29 July 2019
Orbit: 1526 x 1683 km, 47.3° (Epoch: 22 August)

Event Time Altitude Azimuth Distance (km) Brightness Sun altitude
Rises 19:14:27 0° 226° (SW) 4,926 12.1 10.5°
Reaches altitude 10° 19:17:44 10° 222° (SW) 3,937 11.5 10.0°
Maximum altitude 19:27:21 51° 151° (SSE) 2,010 9.5 8.6°
Drops below altitude 10° 19:36:47 10° 79° (E) 3,869 10.6 7.2°
Sets 19:39:58 0° 75° (ENE) 4,836 11.1 6.7°
